Regional Weather Roundup
Issued by NWS Goodland, KS

Home | Current Version | Previous Version | Graphics & Text | Print | Product List | Glossary On
Versions: 1 2 3 4 5 6 7 8 9 10 11 12 13 14 15 16 17 18 19 20 21 22 23 24 25 26 27 28 29 30 31 32 33 34 35 36 37 38 39 40 41 42 43 44 45 46 47 48 49 50
000
ASUS43 KGLD 090059
RWRGLD

GOODLAND FORECAST AREA HOURLY WEATHER ROUNDUP
NATIONAL WEATHER SERVICE GOODLAND KS
600 PM MST THU DEC 08 2016

...OFFICIAL OBSERVATIONS...

CITY           SKY/WX    TMP DP  RH WIND       PRES   REMARKS
GOODLAND KS    CLOUDY     4  -3  73 SE9       30.48S
HILL CITY KS   CLOUDY     6  -1  73 N6        30.61S
IMPERIAL NEB   CLOUDY     7  -2  66 SE3       30.51S
MCCOOK NEB     CLOUDY    10   2  69 SW8       30.58R
AKRON CO       CLOUDY     4  -2  76 SE9       30.35F
BURLINGTON CO  CLOUDY    10   1  67 SE8       30.43F
LIMON CO       CLOUDY     8   0  69 S12       30.31F WCI  -7
$$

...UNOFFICIAL OBSERVATIONS...

CITY           SKY/WX    TMP DP  RH WIND       PRES   REMARKS
COLBY KS       CLEAR      7   1  78 CALM      30.54S
LENORA KS        N/A     14  32 100 MISG        N/A
NORTON KS      CLEAR      9   0  66 W6        30.59R
SHARON SPRINGS   N/A      8   2  75 CALM        N/A
TRENTON NEB      N/A     10  32 100 CALM        N/A
KIT CARSON CO    N/A     10  -1  62 MISG        N/A
YUMA CO        FAIR       0  -6  78 E7        30.40F
$$




USA.gov is the U.S. government's official web portal to all federal, state and local government web resources and services.